Parkersburg, WV

6:30 AM EDT on October 16, 2019 (GMT -0400)
Wood County Wilson

Weather History for KPKB - August, 2019

Change the Weather History Date:

Monday, August 12, 2019

  Actual Average Record
Temperature  
Mean Temperature 72 °F 74 °F  
Max Temperature 86 °F 85 °F 99 °F (2005)
Min Temperature 58 °F 63 °F 49 °F (1968)
Degree Days  
Heating Degree Days 0 0  
Month to date heating degree days 0 0  
Since 1 June heating degree days 16 20  
Since 1 July heating degree days 0 1  
Cooling Degree Days 7 9  
Month to date cooling degree days 107 108  
Year to date cooling degree days 804 675  
Since 1 June cooling degree days 659 591  
Growing Degree Days 22 (Base 50)    
Moisture  
Dew Point 61 °F    
Average Humidity 72    
Maximum Humidity 100    
Minimum Humidity 44    
Precipitation  
Precipitation 0.00 in 0.12 in 1.50 in (2014)
Month to date precipitation 2.54 1.45  
Year to date precipitation 31.98 26.63  
Sea Level Pressure  
Sea Level Pressure 30.01 in    
Wind  
Wind Speed 2 mph (South)    
Max Wind Speed 9 mph    
Max Gust Speed 12 mph    
Visibility 7 miles    
Events Fog    
T = Trace of Precipitation, MM = Missing Value Source: NWS Daily Summary

Daily Weather History Graph

Daily Weather History Graph

Search for Another Location

Airport or City:

Astronomy

Aug. 12, 2019 Rise Set
Actual Time 6:35 AM EDT 8:25 PM EDT
Civil Twilight 6:06 AM EDT 8:54 PM EDT
Nautical Twilight 5:31 AM EDT 9:29 PM EDT
Astronomical Twilight 4:53 AM EDT 10:06 PM EDT
Moon 6:53 PM EDT (8/12) 3:44 AM EDT (8/12)
Length of Visible Light 14h 47m
Length of Day
13h 49m
Waxing Gibbous, 93% of the Moon is Illuminated
Aug 12
Waxing Gibbous
Aug 15
Full
Aug 23
Last Quarter
Aug 30
New
Sep 5
First Quarter

Hourly Weather History & Observations

Time (EDT) Temp. Heat Index Dew Point Humidity Pressure Visibility Wind Dir Wind Speed Gust Speed Precip Events Conditions
12:53 AM 63.0 °F - 61.0 °F 93% 30.05 in 10.0 mi Calm Calm - N/A   Clear
1:53 AM 63.0 °F - 61.0 °F 93% 30.04 in 10.0 mi Calm Calm - N/A   Clear
2:53 AM 61.0 °F - 59.0 °F 93% 30.04 in 6.0 mi Calm Calm - N/A   Clear
3:53 AM 60.1 °F - 57.9 °F 93% 30.03 in 10.0 mi Calm Calm - N/A   Partly Cloudy
4:12 AM 60.1 °F - 57.9 °F 93% 30.04 in 2.5 mi Calm Calm - N/A   Mostly Cloudy
4:16 AM 60.1 °F - 57.9 °F 93% 30.04 in 0.8 mi Calm Calm - N/A   Mist
4:27 AM 59.0 °F - 57.9 °F 96% 30.04 in 3.0 mi Calm Calm - N/A   Mostly Cloudy
4:35 AM 59.0 °F - 57.9 °F 96% 30.04 in 10.0 mi Calm Calm - N/A   Scattered Clouds
4:53 AM 59.0 °F - 57.0 °F 93% 30.03 in 10.0 mi Calm Calm - N/A   Clear
5:53 AM 60.1 °F - 57.9 °F 93% 30.02 in 8.0 mi Calm Calm - N/A   Clear
6:08 AM 59.0 °F - 57.0 °F 93% 30.04 in 1.8 mi SSE 3.5 mph - N/A   Scattered Clouds
6:26 AM 57.9 °F - 57.0 °F 97% 30.04 in 0.8 mi Calm Calm - N/A   Mist
6:33 AM 57.9 °F - 57.0 °F 97% 30.04 in 1.0 mi Calm Calm - N/A   Mist
6:41 AM 59.0 °F - 57.9 °F 96% 30.05 in 0.5 mi Calm Calm - N/A Fog Fog
6:53 AM 59.0 °F - 57.9 °F 96% 30.03 in 0.2 mi Calm Calm - N/A Fog Fog
7:53 AM 61.0 °F - 60.1 °F 97% 30.04 in 0.1 mi Calm Calm - N/A Fog Fog
8:13 AM 61.0 °F - 60.1 °F 97% 30.05 in 0.5 mi Calm Calm - N/A Fog Fog
8:32 AM 62.1 °F - 61.0 °F 96% 30.05 in 1.0 mi Calm Calm - N/A   Scattered Clouds
8:39 AM 63.0 °F - 62.1 °F 97% 30.05 in 5.0 mi Calm Calm - N/A   Scattered Clouds
8:53 AM 64.0 °F - 62.1 °F 93% 30.04 in 10.0 mi Calm Calm - N/A   Partly Cloudy
9:53 AM 71.1 °F - 63.0 °F 75% 30.04 in 10.0 mi Calm Calm - N/A   Clear
10:53 AM 77.0 °F - 63.0 °F 62% 30.04 in 10.0 mi Calm Calm - N/A   Clear
11:53 AM 81.0 °F 82.2 °F 63.0 °F 54% 30.01 in 10.0 mi Variable 3.5 mph - N/A   Clear
12:53 PM 82.0 °F 82.7 °F 61.0 °F 49% 30.00 in 10.0 mi SSW 3.5 mph - N/A   Clear
1:53 PM 84.0 °F 84.0 °F 60.1 °F 44% 29.99 in 10.0 mi Variable 3.5 mph - N/A   Clear
2:53 PM 84.9 °F 85.4 °F 62.1 °F 46% 29.98 in 10.0 mi SSW 6.9 mph - N/A   Clear
3:53 PM 86.0 °F 86.3 °F 62.1 °F 44% 29.94 in 10.0 mi South 8.1 mph - N/A   Clear
4:53 PM 84.9 °F 85.4 °F 62.1 °F 46% 29.93 in 10.0 mi SSW 4.6 mph - N/A   Clear
5:53 PM 82.0 °F 83.4 °F 64.0 °F 54% 29.92 in 10.0 mi SSW 4.6 mph - N/A   Clear
7:53 PM 78.1 °F - 71.1 °F 79% 29.91 in 10.0 mi SE 3.5 mph - N/A   Clear
8:53 PM 75.9 °F - 70.0 °F 82% 29.92 in 10.0 mi Calm Calm - N/A   Overcast
9:53 PM 73.9 °F - 71.1 °F 91% 29.93 in 10.0 mi Calm Calm - N/A   Mostly Cloudy
10:53 PM 73.0 °F - 70.0 °F 90% 29.91 in 10.0 mi Calm Calm - N/A   Overcast
11:53 PM 73.9 °F - 70.0 °F 87% 29.90 in 10.0 mi Calm Calm - N/A   Overcast